Volver al catálogo

STARLINK-35684

ActivoComunicacionesVLEO
NORAD 66458·PAYLOAD·🇺🇸 United States

Lanzado Nov 15, 2025 desde Cape Canaveral Space Force Station

Loading…

Próximos Pases (próximas 24 horas)

TLE

ActualizadoSource: CelesTrak SupGP

Época: Sep 15, 2026, 03:37 UTC

1 66458C 25262C   26258.15118056  .00018026  00000+0  65273-3 0  2586
2 66458  43.0016 306.4344 0001326 260.9944 304.3070 15.27577988    12

Sigue STARLINK-35684 en tiempo real con AllMySat

Download on the App Store